Regional Weather Roundup
Issued by NWS

Home | Current Version | Previous Version | Graphics & Text | Print | Product List | Glossary On
Versions: 1 2 3 4 5 6 7 8 9 10 11 12 13 14 15 16 17 18 19 20 21 22 23 24 25 26 27 28 29 30 31 32 33 34 35 36 37 38 39 40 41 42 43 44 45 46 47 48 49 50
820
ASUS44 KJAN 290410
RWRMS

MISSISSIPPI HOURLY WEATHER ROUNDUP
NATIONAL WEATHER SERVICE JACKSON MS
1100 PM CDT MON JUL 28 2014

NOTE: "FAIR: INDICATES FEW OR NO CLOUDS BELOW 12,000 FEET WITH NO
SIGNIFICANT WEATHER AND/OR OBSTRUCTIONS TO VISIBILITY.

MSZ001>002-007>008-010>013-018>021-025>028-034>036-290500-
NORTHWEST MISSISSIPPI

CITY           SKY/WX    TMP DP  RH WIND       PRES   REMARKS
CLARKSDALE     FAIR      72  68  88 CALM      30.07F
CLEVELAND      FAIR      70  67  90 N5        30.05F
GREENWOOD      CLEAR     69  66  90 CALM      30.06S
GREENVILLE     MOCLDY    71  67  87 N3        30.05F
GRENADA        FAIR      68  64  88 NW5       30.07R
OLIVE BRANCH   CLEAR     72  70  94 CALM      30.06F
OXFORD         FAIR      66  64  94 CALM      30.09S
TUNICA         CLEAR     68  64  88 CALM      30.06F
$$

MSZ003>006-009-014>017-022>024-029>033-037>039-290500-
NORTHEAST MISSISSIPPI

CITY           SKY/WX    TMP DP  RH WIND       PRES   REMARKS
BELMONT        FAIR      72  64  75 NW3       30.06S
COLUMBUS AFB   CLEAR     72  65  77 NW2       30.05R
CORINTH        FAIR      68  64  88 CALM      30.06S
GOLDN TRIANGLE CLEAR     70  63  78 NW3       30.05S
STARKVILLE     FAIR      70  64  83 CALM      30.05S
TUPELO         CLEAR     73  64  73 NW3       30.05S
$$

MSZ040-058-290500-
CENTRAL MISSISSIPPI

CITY           SKY/WX    TMP DP  RH WIND       PRES   REMARKS
JACKSON INTL   PTCLDY    74  66  76 N7        30.05F
JACKSON HAWKNS PTCLDY    77  64  64 N6        30.06S
MERIDIAN KEY   CLEAR     75  65  70 CALM      30.04R
MERIDIAN NAS   CLEAR     74  65  73 NW6       30.04R
RAYMOND        FAIR      72  66  83 CALM      30.06S
VICKSBURG      CLEAR     75  66  73 N7        30.05S
$$

MSZ059>079-290500-
SOUTH MISSISSIPPI

CITY           SKY/WX    TMP DP  RH WIND       PRES   REMARKS
BROOKHAVEN     FAIR      73  72  94 CALM      30.08S
COLUMBIA       FAIR      77  70  78 VRB5      30.03S
HATTIESBURG    CLEAR     81  69  67 NW8       30.03R
MCCOMB         PTCLDY    77  73  87 NW6       30.04F
NATCHEZ        MOCLDY    73  72  94 CALM      30.05F
PINE BELT      CLEAR     79  66  65 N10       30.05S
$$

MSZ080>082-290500-
COASTAL MISSISSIPPI

CITY           SKY/WX    TMP DP  RH WIND       PRES   REMARKS
BILOXI         PTCLDY    85  78  79 VRB5      30.00R HX  96
PASCAGOULA     PTCLDY    81  75  82 W5        29.99R
GULFPORT       PTCLDY    86  77  74 NW6       29.99S HX  97
$$



USA.gov is the U.S. government's official web portal to all federal, state and local government web resources and services.